Weather Roundup
Issued by NWS Springfield, MO

Home | Current Version | Previous Version | Text Only | Print | Product List | Glossary On
Versions: 1 2 3 4 5 6 7 8 9 10 11 12 13 14 15 16 17 18 19 20 21 22 23 24 25 26 27 28 29 30 31 32 33 34 35 36 37 38 39 40 41 42 43 44 45 46 47 48 49 50
000
NZUS99 KSGF 201407
HRRSGF

HOURLY WEATHER
NATIONAL WEATHER SERVICE SPRINGFIELD MO
900 AM CDT SAT SEP 20 2014

......SGF CWA......

CITY           SKY/WX    TMP DP  RH WIND       PRES   REMARKS
SPRINGFIELD    SUNNY     70  67  90 S10       30.07R
JOPLIN         MOSUNNY   72  69  90 S9        30.05R
WEST PLAINS    SUNNY     71  66  84 S5        30.11R
ROLLA          SUNNY     70  65  84 SW10      30.06R
OSAGE BEACH    SUNNY     70  64  83 S7        30.05S
BRANSON        PTSUNNY   72  70  94 CALM      30.10R

......SURROUNDING SGF CWA......

CITY           SKY/WX    TMP DP  RH WIND       PRES   REMARKS
CHANUTE        CLOUDY    70  69  97 S10       30.03R FOG
PARSONS        FOG       70  70 100 S5        30.04R VSB 1/2
EMPORIA        SUNNY     72  68  87 S8        30.01R
GROVE OK       MOSUNNY   70  70 100 CALM      30.05S FOG
ROGERS AR      PTSUNNY   70  66  87 SE6       30.09R
SILOAM SPRINGS MOSUNNY   70  64  83 S5        30.08R
HARRISON AR    MOSUNNY   71  68  90 SE3       30.10R
NEAR YELLVILLE CLOUDY    64  61  88 CALM      30.09R VSB<1/4

......KANSAS AND MISSOURI......

CITY           SKY/WX    TMP DP  RH WIND       PRES   REMARKS
KANSAS CTY INT MOSUNNY   71  69  93 S12       29.98F FOG
DOWNTOWN KC    SUNNY     74  68  81 SW10      29.98S
COLUMBIA       SUNNY     70  67  90 SW9       30.03S
SEDALIA        MOSUNNY   73  67  81 SW10      30.03R HAZE
ST JOSEPH      PTSUNNY   70  68  93 S7        29.97F FOG
ST LOUIS       PTSUNNY   72  64  76 SW12G23   30.04R
SPIRIT OF STL  MOSUNNY   70  65  84 W7        30.04R
KIRKSVILLE     CLOUDY    67  65  93 S8        29.99F FOG
WICHITA        SUNNY     71  67  87 S8        30.00R FOG
TOPEKA         SUNNY     73  70  90 VRB5      29.98F
OLATHE         MOSUNNY   71  68  90 S6        30.00S FOG

......TENNESSEE......

CITY           SKY/WX    TMP DP  RH WIND       PRES   REMARKS
MEMPHIS        SUNNY     77  66  68 SE7       30.08R
NASHVILLE      MOSUNNY   75  63  66 S13       30.14S

......ARKANSAS.......

CITY           SKY/WX    TMP DP  RH WIND       PRES   REMARKS
FAYETTEVILLE   PTSUNNY   70  68  93 S3        30.09R
FT SMITH       MOSUNNY   73  69  87 E5        30.06R
LITTLE ROCK    SUNNY     77  68  73 CALM      30.06R

......OKLAHOMA.......

CITY           SKY/WX    TMP DP  RH WIND       PRES   REMARKS
TULSA          PTSUNNY   72  70  93 S8        30.01R FOG
PONCA CITY     SUNNY     73  68  84 S7        30.00R HAZE
MCALESTER      MOSUNNY   75  71  87 VRB5      30.05R
OKLAHOMA CITY  PTSUNNY   72  69  90 S7        30.03R FOG

......IOWA............

CITY           SKY/WX    TMP DP  RH WIND       PRES   REMARKS
DES MOINES     CLOUDY    69  65  86 SW7       29.85F
QUAD CITIES    CLOUDY    66  62  87 S16G24    29.85F

......ILLINOIS........

CITY           SKY/WX    TMP DP  RH WIND       PRES   REMARKS
QUINCY         CLOUDY    67  63  87 SW8       30.01S
CHICAGO        CLOUDY    67  56  67 SW14G21   29.88F



USA.gov is the U.S. government's official web portal to all federal, state and local government web resources and services.